Home   Weather   Zarqa   Past weeks

Flag for Jordan Past Weather in Zarqa, Jordan — Yesterday and Last 2 Weeks

Now
52 °F

Haze.


Feels Like: 52 °F
Forecast: 44 / 63 °F
Wind: No wind

Location: Amman Airport

Current Time: Jan 17, 2017 at 7:30:16 pm

Latest Report: Jan 17, 2017 at 7:00 pm


Visibility: 2 mi

Pressure: 30.07 "Hg (27.93 "Hg at 615m altitude)

Humidity: 50%

Dew Point: 34 °F

Location of ZarqaLocation

Past Weather in Zarqa — Graph

°F

Zarqa Temperature Yesterday

Maximum temperature yesterday: 54 °F (at 3:00 pm)
Minimum temperature yesterday: 37 °F (at 7:00 am)
Average temperature yesterday: 45 °F

High & Low Weather Summary for the Past Weeks

 TemperatureHumidityPressure
High61 °F (Jan 17, 3:00 pm)100% (Jan 16, 7:00 am)30.42 "Hg (Jan 16, 7:00 am)
Low34 °F (Jan 10, 6:00 am)28% (Jan 5, 4:00 pm)29.89 "Hg (Jan 15, 5:00 am)
Average46 °F65%30.11 "Hg
* Reported Jan 2 6:00 pm — Jan 17 6:00 pm, Zarqa, Weather by CustomWeather, © 2017

Note: Actual official high and low records may vary slightly from our data, if they occured in-between our weather recording intervals... More about our weather records

Advertising

Zarqa Weather History for the Previous 24 Hours

Scroll right to see more
 ConditionsComfort  
Time TempWeatherWind HumidityBarometerVisibility
6:00 pm
Tue, Jan 17
54 °FHaze.No wind51%30.07 "Hg2 mi
5:00 pm57 °FHaze.5 mph41%30.07 "Hg2 mi
4:00 pm59 °FHaze.5 mph42%30.07 "Hg2 mi
3:00 pm61 °FHaze.5 mph42%30.07 "Hg2 mi
2:00 pm59 °FHaze.7 mph48%30.07 "Hg3 mi
1:00 pm57 °FHaze.9 mph51%30.07 "Hg3 mi
12:00 pm55 °FHaze.6 mph51%30.09 "Hg3 mi
11:00 am50 °FHaze.6 mph62%30.42 "Hg2 mi
10:00 am45 °FHaze.6 mph66%30.15 "Hg3 mi
9:00 am43 °FHaze.3 mph71%30.15 "Hg3 mi
8:00 am41 °FHaze.No wind81%30.15 "Hg2 mi
7:00 am39 °FHaze.3 mph81%30.12 "Hg2 mi
6:00 am41 °FHaze.3 mph76%30.12 "Hg3 mi
5:00 am41 °FHaze.3 mph76%30.12 "Hg3 mi
4:00 am43 °FHaze.5 mph81%30.12 "Hg3 mi
3:00 am43 °FHaze.No wind81%30.15 "Hg3 mi
2:00 am45 °FHaze.No wind76%30.15 "Hg3 mi
1:00 am45 °FHaze.No wind76%30.12 "Hg3 mi
12:00 am45 °FHaze.No wind81%30.15 "Hg3 mi
11:00 pm
Mon, Jan 16
46 °FHaze.No wind71%30.15 "Hg3 mi
10:00 pm46 °FHaze.No wind71%30.15 "Hg3 mi
9:00 pm46 °FHaze.No wind71%30.15 "Hg3 mi
8:00 pm46 °FHaze.No wind71%30.15 "Hg3 mi
7:00 pm46 °FHaze.No wind66%30.15 "Hg3 mi
Weather by CustomWeather, © 2017

See weather overviewHow to use our weather pages